Location: Luxembourg
(49.6117°N, 6.1300°E)
Time: 16:10:29
(UTC+01:00)

ISS - Visible Passes

Search period start: 20 November 2017 00:00
Search period end: 30 November 2017 00:00
Orbit: 402 x 407 km, 51.6° (Epoch: 21 November)

Date Brightness Start Highest point End Pass type
(mag) Time Alt. Az. Time Alt. Az. Time Alt. Az.
27 Nov -1.1 19:07:05 10° SSW 19:07:38 13° S 19:07:38 13° S visible
28 Nov -1.6 18:15:44 10° S 18:17:32 14° SE 18:17:35 14° SE visible
29 Nov -2.3 18:58:03 10° SW 19:00:07 30° SSW 19:00:07 30° SSW visible
